Location: Pedholt
(56.0260°N, 10.2097°E)
Time: 06:17:35
(UTC+00:00)

Cosmos 2369 - Pass Details

Date: 14 July 2020
Orbit: 838 x 857 km, 71.0° (Epoch: 14 August)

Event Time Altitude Azimuth Distance (km) Brightness Sun altitude
Rises 01:37:14 0° 324° (NW) 3,436 7.2 -7.5°
Reaches altitude 10° 01:39:46 10° 318° (NW) 2,498 6.4 -7.3°
Maximum altitude 01:45:13 47° 247° (WSW) 1,133 4.1 -6.9°
Drops below altitude 10° 01:50:39 10° 176° (S) 2,488 5.7 -6.5°
Sets 01:53:10 0° 170° (S) 3,420 6.4 -6.3°
